Location: Cape Cod Imaging Station
(41.7417°N, 70.1583°W)
Time: 05:27:18
(UTC-05:00)

Tiangong 1 - Visible Passes

Search period start: 12 December 2017 00:00
Search period end: 22 December 2017 00:00
Orbit: 276 x 303 km, 42.8° (Epoch: 11 December)

Date Brightness Start Highest point End Pass type
(mag) Time Alt. Az. Time Alt. Az. Time Alt. Az.
19 Dec 3.5 05:41:10 10° S 05:42:45 15° SSE 05:44:19 10° ESE visible
20 Dec 2.6 05:44:16 10° SW 05:46:26 26° SSE 05:48:38 10° E visible
21 Dec 1.4 05:48:31 18° SW 05:50:07 45° SSE 05:52:34 10° E visible
